sat.trackr.live / text

‹ back to catalog

ONEWEB-0235

NORAD 48771 · 2021-045E

PAYLOAD ACTIVE UNKNOWN

§ Identity

Operator
Country
UK
Launch date
2021-05-28
Launch site
VOSTO
Launch vehicle
Mass (kg)
RCS (m²)

Purposes: comms

External: N2YO · Heavens-Above · Gunter

§ Orbital elements

Epoch: 2026-05-24T18:41:19.068288Z

Period
109.46 min
Inclination
87.8999°
Eccentricity
0.0001527
Mean motion
13.15546968 rev/d
Perigee alt
1,200.6 km
Apogee alt
1,202.9 km
Semi-major
7,579.9 km
B*
3.3564e-4
RAAN
263.8541°
Arg perigee
91.9588°
Mean anomaly
268.1718°
Rev number
24,130

§ Raw data

ONEWEB-02351 48771U 21045E   26144.77869292  .00000139  00000+0  33564-3 0  99922 48771  87.8999 263.8541 0001527  91.9588 268.1718 13.15546968241304

JSON: /api/v1/satellites/48771 · /tle

For live sub-satellite position, see the globe view (requires WebGL).

§ Visibility from observer

Set your observer location to see the next 7 days of passes ≥ 10°. The values pass through the URL so the page stays shareable.

No JS? Fill the form by hand. The geolocation button needs JavaScript.